Regional Weather Roundup
Issued by NWS Kansas City/Pleasant Hill, MO

Home | Current Version | Previous Version | Graphics & Text | Print | Product List | Glossary Off
Versions: 1 2 3 4 5 6 7 8 9 10 11 12 13 14 15 16 17 18 19 20 21 22 23 24 25 26 27 28 29 30 31 32 33 34 35 36 37 38 39 40 41 42 43 44 45 46 47 48 49 50

000
ASUS43 KEAX 181610
RWREAX

WEATHER ROUNDUP FOR EASTERN KANSAS AND NORTHWEST MISSOURI
NATIONAL WEATHER SERVICE KANSAS CITY/PLEASANT HILL MO
1000 AM CST SAT NOV 18 2017

KSZ040-057-103>105-MOZ028-029-037-043-181700-
...KANSAS CITY METROPOLITAN AREA...

CITY           SKY/WX    TMP DP  RH WIND       PRES   REMARKS
K.C. INTL      CLOUDY    42  40  92 N16G32    29.81R WCI  34
K.C. DOWNTOWN  CLOUDY    45  40  82 NW14      29.81R
LEES SUMMIT    LGT RAIN  43  41  93 NW16G29   29.80R
OLATHE - IXD   LGT RAIN  43  41  93 NW20G32   29.83R WCI  34
OLATHE - OJC   CLOUDY    42  41  96 N14G24    29.81R WCI  35
LAWRENCE       CLOUDY    44  40  85 NW23G35   29.86R

$$

MOZ001>008-011>017-020>025-030>033-038>040-044>046-053-054-181700-
...NORTHERN AND CENTRAL MISSOURI...

CITY           SKY/WX    TMP DP  RH WIND       PRES   REMARKS
ST. JOSEPH     CLOUDY    42  38  85 N23G32    29.84R WCI  33
MOSBY          DRIZZLE   43  41  93 NW13      29.78R
WARRENSBURG    RAIN      41  37  87 NW14G24   29.75R WCI  33
WHITEMAN AFB   LGT RAIN  42  40  91 NW21G30   29.68R WCI  33
CLINTON        LGT RAIN  45  41  87 MISG      29.73R
SEDALIA        LGT RAIN  44  43  96 N22G32    29.69R
WARSAW         NOT AVBL
CHILLICOTHE      N/A     42  41  96 NW15G22   29.74R WCI  34
KIRKSVILLE     LGT RAIN  39  39 100 N18G29    29.66R FOG     WCI  30

$$

MOZ041-047>049-056>058-063>065-088>090-097-181700-
...EASTERN AND SOUTHERN MISSOURI...

CITY           SKY/WX    TMP DP  RH WIND       PRES   REMARKS
ST. LOUIS INTL PTSUNNY   55  52  89 NW22G28   29.41R
SPIRIT OF STL  CLOUDY    54  50  86 NW21G26   29.42R
COLUMBIA       LGT RAIN  44  43  96 N22G37    29.59R FOG
JEFFERSON CITY CLOUDY    47  43  86 NW17G26   29.58R
ROLLA          CLOUDY    50  47  89 NW20G36   29.51R
OSAGE BEACH    LGT RAIN  47  44  90 NW10G21   29.61R
SPRINGFIELD    LGT RAIN  49  48  97 NW26G37   29.67R FOG
BRANSON        CLOUDY    57  52  82 W13G24    29.65R
JOPLIN         CLOUDY    47  46  97 NW21G30   29.79R
WEST PLAINS    CLOUDY    74  59  59 SW16G33   29.48F

$$

IAZ060-094-KSZ022-034>040-054-083-096-NEZ052-066-093-181700-
...KANSAS...SOUTHEAST NEBRASKA AND IOWA...

CITY           SKY/WX    TMP DP  RH WIND       PRES   REMARKS
TOPEKA         CLOUDY    44  37  76 NW22G31   29.89R
MANHATTAN      CLOUDY    45  31  58 N13G26    29.97R
EMPORIA        CLOUDY    45  37  73 NW26G37   29.92R
CHANUTE        LGT RAIN  46  42  86 NW23G36   29.87R
WICHITA        LGT RAIN  43  39  86 N26G38    30.02R WCI  33
OMAHA          CLOUDY    40  29  64 NW18      29.90R WCI  31
LINCOLN        MOSUNNY   45  36  70 N22       29.96R
FALLS CITY     PTSUNNY   41  34  76 NW23G31   29.88R WCI  31
LAMONI         CLOUDY    39  36  89 NW21G35   29.78R WCI  29
DES MOINES     CLOUDY    40  35  83 N15       29.78R WCI  32

$$




USA.gov is the U.S. government's official web portal to all federal, state and local government web resources and services.